FW8525 Weather Reports


Display with metric or nautical units.
time (UTC)temp
F
wind
direction
speed
MPH
gust
MPH
rain 1hr
in
rain 24hr
in
rain mn
in
humidity
%
barometer
mb
20260904121541 74 0 0.0 0.0 0.00 0.60 0.60 97 1013.8
20260904120048 74 0 0.0 0.0 0.00 0.60 0.60 98 1013.9
20260904114545 74 0 0.0 0.0 0.00 0.61 0.60 98 1013.8
20260904113048 73 0 0.0 9.0 0.00 0.61 0.60 98 1013.9
20260904111540 72 0 0.0 0.0 0.00 0.61 0.60 98 1013.9
20260904110040 72 0 0.0 0.0 0.00 0.61 0.60 99 1013.7
20260904104542 72 0 0.0 0.0 0.00 0.61 0.60 98 1013.3
20260904103042 71 0 0.0 0.0 0.00 0.61 0.60 98 1013.0
20260904101545 72 0 0.0 5.0 0.00 0.61 0.60 98 1012.8
20260904100044 72 0 0.0 0.0 0.00 0.61 0.60 98 1013.2
20260904094546 72 0 0.0 0.0 0.00 0.61 0.60 98 1013.2
20260904093038 72 0 0.0 0.0 0.00 0.61 0.60 98 1013.1
20260904091539 72 0 0.0 0.0 0.00 0.61 0.60 98 1013.2
20260904090041 72 0 0.0 0.0 0.00 0.61 0.60 98 1013.2
20260904084539 72 0 0.0 0.0 0.00 0.62 0.60 98 1013.1
20260904083039 72 0 0.0 0.0 0.00 0.62 0.60 98 1013.3
20260904081554 72 0 0.0 0.0 0.01 0.62 0.60 98 1013.7
20260904080040 72 0 0.0 0.0 0.03 0.62 0.60 98 1013.8
20260904074600 72 0 0.0 0.0 0.06 0.64 0.60 98 1013.9
20260904073059 72 0 0.0 0.0 0.09 0.64 0.60 98 1014.1
20260904071542 72 0 0.0 2.0 0.09 0.63 0.58 98 1014.2
20260904070048 72 0 0.0 2.0 0.11 0.61 0.57 97 1014.1
20260904064543 72 0 0.0 0.0 0.44 0.58 0.54 97 1014.6
20260904063041 73 0 0.0 3.0 0.50 0.54 0.50 97 1014.8
20260904061539 73 0 0.0 10.0 0.50 0.54 0.50 97 1015.6
20260904060038 74 147 4.0 17.0 0.46 0.50 0.46 96 1015.9
20260904054543 76 146 11.0 34.0 0.06 0.10 0.06 94 1015.3
20260904053044 78 0 0.0 0.0 0.00 0.04 0.00 97 1013.4
20260904051542 78 0 0.0 0.0 0.00 0.04 0.00 97 1013.3
20260904050040 77 0 0.0 0.0 0.00 0.04 0.00 97 1013.5
20260904044541 77 0 0.0 0.0 0.00 0.04 0.00 96 1013.8
20260904043054 77 0 0.0 0.0 0.00 0.04 0.00 96 1013.7
20260904041543 77 0 0.0 0.0 0.00 0.04 0.00 95 1013.4
20260904040043 78 0 0.0 0.0 0.00 0.04 0.00 95 1013.7
20260904034548 78 0 0.0 0.0 0.00 0.04 0.04 95 1014.2
20260904033043 78 0 0.0 0.0 0.00 0.04 0.04 95 1014.4
20260904031546 78 0 0.0 0.0 0.00 0.04 0.04 95 1014.5
20260904030041 78 0 0.0 0.0 0.00 0.04 0.04 93 1014.5
20260904024538 78 0 0.0 0.0 0.00 0.04 0.04 93 1014.4
20260904023041 78 0 0.0 0.0 0.00 0.04 0.04 93 1014.3
20260904021545 79 0 0.0 0.0 0.00 0.04 0.04 94 1014.3
20260904020041 79 0 0.0 0.0 0.00 0.04 0.04 93 1014.4
20260904014609 79 0 0.0 0.0 0.00 0.04 0.04 92 1014.7
20260904013040 80 0 0.0 0.0 0.00 0.04 0.04 92 1014.7
20260904011546 80 0 0.0 0.0 0.00 0.04 0.04 91 1015.0
20260904010045 81 0 0.0 0.0 0.00 0.04 0.04 90 1014.9
20260904004540 81 0 0.0 0.0 0.00 0.04 0.04 91 1014.9
20260904003040 81 0 0.0 0.0 0.00 0.04 0.04 90 1014.7
20260904001538 82 0 0.0 0.0 0.00 0.04 0.04 89 1014.6
20260904000125 82 0 0.0 0.0 0.00 0.04 0.04 88 1014.2
20260903234542 83 0 0.0 0.0 0.00 0.04 0.04 86 1014.0
20260903233042 84 0 0.0 0.0 0.00 0.04 0.04 84 1014.2
20260903231542 85 0 0.0 0.0 0.00 0.04 0.04 82 1014.1
20260903230040 87 0 0.0 0.0 0.00 0.04 0.04 78 1014.3
20260903224545 87 0 0.0 0.0 0.00 0.04 0.04 77 1014.1
20260903223040 88 0 0.0 0.0 0.00 0.04 0.04 75 1014.0
20260903221544 88 0 0.0 0.0 0.00 0.04 0.04 73 1014.0
20260903220041 88 0 0.0 0.0 0.00 0.04 0.04 74 1014.2
20260903214547 88 0 0.0 0.0 0.00 0.04 0.04 73 1014.0
20260903213039 89 0 0.0 0.0 0.00 0.04 0.04 70 1014.1
20260903211544 89 0 0.0 0.0 0.00 0.04 0.04 73 1014.1
20260903210046 89 0 0.0 0.0 0.00 0.04 0.04 72 1014.2
20260903204538 89 0 0.0 0.0 0.00 0.04 0.04 74 1014.4
20260903203044 89 0 0.0 8.0 0.00 0.04 0.04 73 1014.5
20260903201540 89 0 0.0 9.0 0.00 0.04 0.04 74 1014.6
20260903200039 88 0 0.0 0.0 0.00 0.04 0.04 78 1014.5
20260903194546 88 0 0.0 8.0 0.00 0.05 0.04 78 1014.5
20260903193048 88 0 0.0 0.0 0.00 0.05 0.04 79 1014.8
20260903191548 87 0 0.0 0.0 0.00 0.05 0.04 80 1015.1
20260903190054 87 0 0.0 0.0 0.00 0.05 0.04 79 1015.2
20260903184541 85 0 0.0 0.0 0.00 0.05 0.04 83 1015.1
20260903183041 84 0 0.0 0.0 0.00 0.05 0.04 83 1015.5
20260903181546 84 0 0.0 0.0 0.00 0.05 0.04 83 1015.9
20260903180044 84 0 0.0 0.0 0.00 0.05 0.04 84 1015.8
20260903174543 85 0 0.0 0.0 0.00 0.05 0.04 82 1015.9
20260903173047 85 0 0.0 0.0 0.00 0.05 0.04 82 1016.1
20260903171541 85 0 0.0 0.0 0.00 0.05 0.04 83 1016.4
20260903170053 84 0 0.0 0.0 0.00 0.05 0.04 84 1016.3
20260903164539 84 0 0.0 0.0 0.00 0.05 0.04 83 1016.6
20260903163056 85 0 0.0 0.0 0.00 0.05 0.04 82 1016.9
20260903161541 85 0 0.0 0.0 0.00 0.05 0.04 82 1016.6
20260903160039 84 0 0.0 0.0 0.00 0.05 0.04 83 1016.5
20260903154542 84 0 0.0 0.0 0.00 0.05 0.04 84 1016.6
20260903153038 84 0 0.0 7.0 0.00 0.05 0.04 83 1016.6
20260903151541 84 0 0.0 0.0 0.00 0.05 0.04 86 1016.6
20260903150052 82 0 0.0 0.0 0.00 0.05 0.04 87 1016.7
20260903144541 81 0 0.0 0.0 0.00 0.05 0.04 90 1016.6
20260903143042 79 0 1.0 8.0 0.00 0.05 0.04 92 1016.7
20260903141539 78 0 0.0 0.0 0.00 0.05 0.04 93 1016.8
20260903140047 78 0 0.0 0.0 0.00 0.05 0.04 94 1016.7
20260903134539 78 0 0.0 0.0 0.00 0.05 0.04 94 1016.7
20260903133043 78 0 0.0 0.0 0.00 0.05 0.04 97 1017.2
20260903131541 76 0 0.0 0.0 0.00 0.05 0.04 98 1017.6
20260903130040 76 0 0.0 0.0 0.00 0.05 0.04 99 1017.8
20260903124538 75 0 0.0 0.0 0.00 0.05 0.04 99 1018.4
20260903123038 75 0 0.0 0.0 0.00 0.05 0.04 99 1018.8